Location: Chillicothe
(39.7950°N, 93.5520°W)
Time: 17:27:26
(UTC-06:00)

BEESAT - Pass Details

Date: 22 November 2019
Orbit: 701 x 709 km, 98.6° (Epoch: 14 December)

Event Time Altitude Azimuth Distance (km) Brightness Sun altitude
Rises 04:50:14 0° 165° (SSE) 3,074 ? -25.9°
Reaches altitude 10° 04:52:29 10° 166° (SSE) 2,159 ? -25.5°
Maximum altitude 04:57:13 89° 255° (WSW) 707 ? -24.6°
Enters shadow 04:58:10 58° 345° (NNW) 819 ? -24.4°
